This is the latest recevied weather packets stored in our database for station/object KC2WGU. If no packets are shown the sender has not sent any weather packets the latest 10 day(s).
| Time | Temp. | Humidity | Pressure | Rain* | Wind** | Luminosity | Snow |
|---|---|---|---|---|---|---|---|
| 1777946421 | 16.11° C | 51% | 1004.5 hPa | 0 mm | - | 0 W/m² | - |
| 1777945820 | 15.56° C | 51% | 1004.5 hPa | 0 mm | - | 0 W/m² | - |
| 1777945221 | 15.56° C | 52% | 1004.5 hPa | 0 mm | - | 0 W/m² | - |
| 1777944620 | 15.56° C | 51% | 1004.5 hPa | 0 mm | - | 0 W/m² | - |
| 1777944021 | 15.56° C | 51% | 1004.5 hPa | 0 mm | - | 0 W/m² | - |
| 1777943420 | 15° C | 51% | 1004.4 hPa | 0 mm | - | 0 W/m² | - |
| 1777942821 | 15.56° C | 51% | 1004.2 hPa | 0 mm | - | 0 W/m² | - |
| 1777942220 | 15.56° C | 51% | 1004 hPa | 0 mm | - | 0 W/m² | - |
| 1777941620 | 16.11° C | 48% | 1003.8 hPa | 0 mm | - | 0 W/m² | - |
| 1777941021 | 16.67° C | 47% | 1003.8 hPa | 0 mm | - | 0 W/m² | - |
| 1777940420 | 17.78° C | 45% | 1003.7 hPa | 0 mm | - | 0 W/m² | - |
| 1777939821 | 17.78° C | 44% | 1003.8 hPa | 0 mm | - | 0 W/m² | - |
| 1777939221 | 18.33° C | 44% | 1003.7 hPa | 0 mm | - | 0 W/m² | - |
| 1777938620 | 18.33° C | 43% | 1003.7 hPa | 0 mm | - | 0 W/m² | - |
| 1777938020 | 18.89° C | 43% | 1003.8 hPa | 0 mm | - | 0 W/m² | - |
| 1777937421 | 18.89° C | 43% | 1003.7 hPa | 0 mm | - | 0 W/m² | - |
| 1777936822 | 19.44° C | 42% | 1003.7 hPa | 0 mm | - | 0 W/m² | - |
| 1777936220 | 19.44° C | 42% | 1003.6 hPa | 0 mm | - | 0 W/m² | - |
| 1777935621 | 20° C | 41% | 1003.4 hPa | 0 mm | - | 0 W/m² | - |
| 1777935020 | 20° C | 41% | 1003.3 hPa | 0 mm | - | 0 W/m² | - |
| 1777934420 | 20° C | 41% | 1003.6 hPa | 0 mm | - | 0 W/m² | - |
| 1777933821 | 20° C | 44% | 1003.5 hPa | 0 mm | - | 0 W/m² | - |
| 1777933220 | 20° C | 41% | 1003.4 hPa | 0 mm | - | 0 W/m² | - |
| 1777932620 | 20.56° C | 42% | 1003.4 hPa | 0 mm | - | 0 W/m² | - |
| 1777932020 | 20.56° C | 41% | 1003.4 hPa | 0 mm | - | 0 W/m² | - |
* Rain latest hour (hover to see other rain measurements)
** Current wind speed in m/s (hover to see current wind gust speed)